Flag for Turkey Weather past 2 weeks in Izmir, Turkey

Now
75 °F

Passing clouds.


Feels Like: 75 °F
Forecast: 74 / 95 °F
Wind: 6 mph from South

Location: Izmir / Adnan Menderes

Current Time: Aug 2, 2014 at 4:06:00 AM

Latest Report: Aug 2, 2014 at 3:20 AM


Visibility: N/A

Pressure: 29.68 "Hg

Humidity: 83%

Dew point: 70 °F

Location of IzmirLocation

Historic Weather in Izmir — Graph

°F

Izmir temperature yesterday

Maximum temperature yesterday: 93 °F (at 1:20 PM)
Minimum temperature yesterday: 70 °F (at 4:20 AM)
Average temperature yesterday: 82 °F

Past Weeks' High & Low Weather Summary

 TemperatureHumidityPressure
High100 °F (Jul 31, 2:20 PM)89% (Aug 2, 2:50 AM)29.89 "Hg (Aug 2, 2:50 AM)
Low64 °F (Jul 29, 6:20 AM)18% (Jul 31, 2:20 PM)29.62 "Hg (Aug 1, 4:20 AM)
Average83 °F52%29.75 "Hg
* Reported Jul 18 2:20 AM — Aug 2 2:50 AM, Izmir, Weather by CustomWeather, © 2014

Note: Actual official high and low records may vary slightly from our data, if they occured in-between our weather recording intervals... More about our weather records

Advertising

Izmir weather history for previous 24 hours

 ConditionsComfort  
Time TempWeatherWind HumidityBarometerVisibility
2:50 AM
Aug 2
75 °FPassing clouds.7 mph89%29.68 "HgN/A
2:20 AM75 °FPassing clouds.6 mph83%29.68 "HgN/A
1:50 AM75 °FPassing clouds.6 mph83%29.68 "HgN/A
1:20 AM75 °FPassing clouds.3 mph83%29.68 "HgN/A
12:50 AM75 °FPassing clouds.3 mph83%29.68 "HgN/A
12:20 AM75 °FPassing clouds.2 mph83%29.68 "HgN/A
11:50 PM
Aug 1
75 °FPassing clouds.3 mph83%29.68 "HgN/A
11:20 PM77 °FPassing clouds.5 mph79%29.68 "HgN/A
10:50 PM77 °FPassing clouds.6 mph83%29.68 "HgN/A
10:20 PM77 °FPassing clouds.3 mph79%29.68 "HgN/A
9:50 PM79 °FPassing clouds.3 mph74%29.68 "HgN/A
9:20 PM79 °FPassing clouds.5 mph74%29.65 "HgN/A
8:50 PM81 °FPassing clouds.8 mph70%29.65 "HgN/A
8:20 PM82 °FSunny.8 mph66%29.65 "Hg10 mi
7:50 PM84 °FSunny.12 mph55%29.62 "Hg10 mi
7:20 PM84 °FSunny.12 mph55%29.62 "Hg10 mi
6:50 PM88 °FSunny.9 mph46%29.62 "Hg10 mi
6:20 PM88 °FPassing clouds.12 mph46%29.62 "HgN/A
5:50 PM88 °FPassing clouds.13 mph49%29.62 "HgN/A
5:20 PM90 °FPassing clouds.13 mph38%29.62 "HgN/A
4:50 PM91 °FPassing clouds.13 mph34%29.62 "HgN/A
4:20 PM90 °FPassing clouds.13 mph38%29.62 "HgN/A
3:50 PM91 °FPassing clouds.14 mph32%29.62 "HgN/A
3:20 PM91 °FPassing clouds.14 mph34%29.62 "HgN/A
2:50 PM93 °FPassing clouds.14 mph30%29.62 "HgN/A
2:20 PM93 °FPassing clouds.13 mph30%29.62 "HgN/A
1:50 PM91 °FPassing clouds.13 mph34%29.62 "HgN/A
1:20 PM93 °FPassing clouds.10 mph34%29.62 "HgN/A
12:50 PM91 °FPassing clouds.10 mph34%29.62 "HgN/A
12:20 PM91 °FPassing clouds.12 mph34%29.62 "HgN/A
11:50 AM91 °FPassing clouds.10 mph38%29.62 "HgN/A
11:20 AM90 °FPassing clouds.9 mph36%29.62 "HgN/A
10:50 AM90 °FPassing clouds.7 mph33%29.62 "HgN/A
10:20 AM88 °FPassing clouds.6 mph38%29.62 "HgN/A
9:50 AM86 °FPassing clouds.6 mph35%29.62 "HgN/A
9:20 AM84 °FPassing clouds.5 mph43%29.62 "HgN/A
8:50 AM81 °FPassing clouds.3 mph45%29.62 "HgN/A
8:20 AM77 °FPassing clouds.3 mph51%29.62 "HgN/A
7:50 AM75 °FPassing clouds.3 mph54%29.62 "HgN/A
7:20 AM73 °FPassing clouds.3 mph57%29.62 "HgN/A
6:50 AM70 °FClear.5 mph69%29.62 "Hg10 mi
6:20 AM70 °FClear.2 mph64%29.62 "Hg10 mi
5:50 AM70 °FClear.2 mph64%29.62 "Hg10 mi
5:20 AM72 °FClear.2 mph65%29.62 "Hg10 mi
4:50 AM70 °FClear.2 mph64%29.62 "Hg10 mi
4:20 AM70 °FClear.3 mph64%29.62 "Hg10 mi
Weather by CustomWeather, © 2014

See weather overviewHow to use our weather pages